Tracking 30102 objects as of 12-Dec-2024
HD Live streaming from Space Station
objects crossing your sky now

STARLINK-2465

Track STARLINK-2465 now!
10-day predictions
STARLINK-2465 is classified as:


NORAD ID: 48124
Int'l Code: 2021-027AJ
Perigee: 553.4 km
Apogee: 555.4 km
Inclination: 53.1 °
Period: 95.6 minutes
Semi major axis: 6925 km
RCS: Unknown
Launch date: April 7, 2021
Source: United States (US)
Launch site: AIR FORCE EASTERN TEST RANGE (AFETR)
Your satellite tracking list
Your tracking list is empty




NASA's NSSDC Master Catalog

Two Line Element Set (TLE):
1 48124U 21027AJ  24346.83249248  .00009304  00000-0  64289-3 0  9998
2 48124  53.0557  34.5712 0001456  73.6317 286.4832 15.06386608204294
Source of the keplerian elements: AFSPC